Time,TemperatureF,DewpointF,PressureIn,WindDirection,WindDirectionDegrees,WindSpeedMPH,WindSpeedGustMPH,Humidity,HourlyPrecipIn,Conditions,Clouds,dailyrainin,SoftwareType,DateUTC
2013-03-05 00:01:00,31.0,12.0,-100.00,North,0,4.0,8.0,44,0.00,,,-99.99,,2013-03-05 07:01:00,
2013-03-05 00:11:00,31.0,12.0,-100.00,North,0,6.0,9.0,44,0.00,,,-99.99,,2013-03-05 07:11:00,
2013-03-05 00:21:00,31.0,12.0,-100.00,North,355,7.0,12.0,44,0.00,,,-99.99,,2013-03-05 07:21:00,
2013-03-05 00:31:00,31.0,12.0,-100.00,North,0,7.0,12.0,44,0.00,,,-99.99,,2013-03-05 07:31:00,
2013-03-05 00:41:00,31.0,12.0,-100.00,North,0,9.0,15.0,44,0.00,,,-99.99,,2013-03-05 07:41:00,
2013-03-05 00:51:00,30.0,11.0,-100.00,North,0,8.0,13.0,44,0.00,,,-99.99,,2013-03-05 07:51:00,
2013-03-05 01:01:00,30.0,11.0,-100.00,North,350,7.0,14.0,44,0.00,,,-99.99,,2013-03-05 08:01:00,
2013-03-05 01:11:00,30.0,11.0,-100.00,North,355,6.0,11.0,44,0.00,,,-99.99,,2013-03-05 08:11:00,
2013-03-05 01:21:00,30.0,11.0,-100.00,NNW,335,10.0,14.0,44,0.00,,,-99.99,,2013-03-05 08:21:00,
2013-03-05 01:31:00,30.0,11.0,-100.00,NNW,345,8.0,14.0,45,0.00,,,-99.99,,2013-03-05 08:31:00,
2013-03-05 01:41:00,29.0,11.0,-100.00,North,0,7.0,12.0,46,0.00,,,-99.99,,2013-03-05 08:41:00,
2013-03-05 01:51:00,29.0,11.0,-100.00,North,0,7.0,13.0,47,0.00,,,-99.99,,2013-03-05 08:51:00,
2013-03-05 02:01:00,29.0,11.0,-100.00,North,350,7.0,12.0,47,0.00,,,-99.99,,2013-03-05 09:01:00,
2013-03-05 02:11:00,28.0,11.0,-100.00,NNW,345,8.0,13.0,47,0.00,,,-99.99,,2013-03-05 09:11:00,
2013-03-05 02:21:00,28.0,11.0,-100.00,North,0,8.0,12.0,48,0.00,,,-99.99,,2013-03-05 09:21:00,
2013-03-05 02:31:00,28.0,11.0,-100.00,NNW,345,7.0,11.0,48,0.00,,,-99.99,,2013-03-05 09:31:00,
2013-03-05 02:42:00,28.0,11.0,-100.00,NNW,345,5.0,12.0,48,0.00,,,-99.99,,2013-03-05 09:42:00,
2013-03-05 02:51:00,28.0,11.0,-100.00,NNW,335,6.0,9.0,49,0.00,,,-99.99,,2013-03-05 09:51:00,
2013-03-05 03:01:00,27.0,11.0,-100.00,NNW,335,9.0,10.0,49,0.00,,,-99.99,,2013-03-05 10:01:00,
2013-03-05 03:11:00,27.0,11.0,-100.00,NNW,340,6.0,9.0,50,0.00,,,-99.99,,2013-03-05 10:11:00,
2013-03-05 03:21:00,27.0,11.0,-100.00,NNW,345,7.0,13.0,50,0.00,,,-99.99,,2013-03-05 10:21:00,
2013-03-05 03:32:00,27.0,11.0,-100.00,NNW,345,9.0,13.0,49,0.00,,,-99.99,,2013-03-05 10:32:00,
2013-03-05 03:41:00,27.0,10.0,-100.00,North,0,7.0,12.0,49,0.00,,,-99.99,,2013-03-05 10:41:00,
2013-03-05 03:51:00,27.0,10.0,-100.00,North,350,7.0,11.0,49,0.00,,,-99.99,,2013-03-05 10:51:00,
2013-03-05 04:01:00,27.0,10.0,-100.00,NNW,340,8.0,12.0,49,0.00,,,-99.99,,2013-03-05 11:01:00,
2013-03-05 04:11:00,27.0,10.0,-100.00,NNW,340,7.0,12.0,49,0.00,,,-99.99,,2013-03-05 11:11:00,
2013-03-05 04:21:00,26.0,10.0,-100.00,North,0,6.0,11.0,50,0.00,,,-99.99,,2013-03-05 11:21:00,
2013-03-05 04:32:00,26.0,10.0,-100.00,North,0,7.0,12.0,50,0.00,,,-99.99,,2013-03-05 11:32:00,
2013-03-05 04:41:00,26.0,10.0,-100.00,North,0,6.0,12.0,50,0.00,,,-99.99,,2013-03-05 11:41:00,
2013-03-05 04:52:00,26.0,11.0,-100.00,North,0,6.0,10.0,51,0.00,,,-99.99,,2013-03-05 11:52:00,
2013-03-05 05:02:00,26.0,11.0,-100.00,NNW,345,7.0,11.0,51,0.00,,,-99.99,,2013-03-05 12:02:00,
2013-03-05 05:11:00,26.0,11.0,-100.00,NNW,335,7.0,12.0,52,0.00,,,-99.99,,2013-03-05 12:11:00,
2013-03-05 05:22:00,26.0,10.0,-100.00,NNW,340,7.0,12.0,52,0.00,,,-99.99,,2013-03-05 12:22:00,
2013-03-05 05:32:00,25.0,10.0,-100.00,NNW,345,8.0,12.0,51,0.00,,,-99.99,,2013-03-05 12:32:00,
2013-03-05 05:42:00,25.0,10.0,-100.00,North,355,9.0,14.0,51,0.00,,,-99.99,,2013-03-05 12:42:00,
2013-03-05 05:52:00,25.0,10.0,-100.00,North,350,9.0,12.0,51,0.00,,,-99.99,,2013-03-05 12:52:00,
2013-03-05 06:01:00,25.0,10.0,-100.00,NNW,340,9.0,13.0,52,0.00,,,-99.99,,2013-03-05 13:01:00,
2013-03-05 06:11:00,25.0,10.0,-100.00,NNW,335,10.0,14.0,52,0.00,,,-99.99,,2013-03-05 13:11:00,
2013-03-05 06:21:00,25.0,10.0,-100.00,North,0,9.0,15.0,52,0.00,,,-99.99,,2013-03-05 13:21:00,
2013-03-05 06:31:00,25.0,10.0,-100.00,NNW,340,9.0,13.0,52,0.00,,,-99.99,,2013-03-05 13:31:00,
2013-03-05 06:42:00,25.0,10.0,-100.00,NNW,335,9.0,12.0,52,0.00,,,-99.99,,2013-03-05 13:42:00,
2013-03-05 06:51:00,25.0,10.0,-100.00,NW,325,9.0,12.0,53,0.00,,,-99.99,,2013-03-05 13:51:00,
2013-03-05 07:02:00,25.0,10.0,-100.00,North,355,8.0,12.0,53,0.00,,,-99.99,,2013-03-05 14:02:00,
2013-03-05 07:11:00,25.0,10.0,-100.00,North,0,7.0,12.0,53,0.00,,,-99.99,,2013-03-05 14:11:00,
2013-03-05 07:21:00,25.0,10.0,-100.00,North,0,7.0,12.0,53,0.00,,,-99.99,,2013-03-05 14:21:00,
2013-03-05 07:31:00,25.0,10.0,-100.00,NNW,340,6.0,9.0,53,0.00,,,-99.99,,2013-03-05 14:31:00,
2013-03-05 07:41:00,25.0,10.0,-100.00,NNW,335,6.0,9.0,53,0.00,,,-99.99,,2013-03-05 14:41:00,
2013-03-05 07:52:00,25.0,10.0,-100.00,NNW,330,6.0,9.0,54,0.00,,,-99.99,,2013-03-05 14:52:00,
2013-03-05 08:01:00,25.0,10.0,-100.00,NNW,345,6.0,9.0,54,0.00,,,-99.99,,2013-03-05 15:01:00,
2013-03-05 08:11:00,25.0,11.0,-100.00,North,0,6.0,11.0,54,0.00,,,-99.99,,2013-03-05 15:11:00,
2013-03-05 08:21:00,26.0,11.0,-100.00,NNW,340,7.0,13.0,53,0.00,,,-99.99,,2013-03-05 15:21:00,
2013-03-05 08:31:00,26.0,11.0,-100.00,NNW,330,9.0,14.0,52,0.00,,,-99.99,,2013-03-05 15:31:00,
2013-03-05 08:42:00,27.0,12.0,-100.00,NNW,335,10.0,14.0,51,0.00,,,-99.99,,2013-03-05 15:42:00,
2013-03-05 08:51:00,28.0,12.0,-100.00,NNW,330,9.0,14.0,50,0.00,,,-99.99,,2013-03-05 15:51:00,
2013-03-05 09:01:00,28.0,11.0,-100.00,NNW,335,10.0,16.0,48,0.00,,,-99.99,,2013-03-05 16:01:00,
2013-03-05 09:11:00,29.0,11.0,-100.00,NNW,335,12.0,15.0,47,0.00,,,-99.99,,2013-03-05 16:11:00,
2013-03-05 09:21:00,29.0,11.0,-100.00,NNW,335,13.0,17.0,46,0.00,,,-99.99,,2013-03-05 16:21:00,
2013-03-05 09:31:00,30.0,12.0,-100.00,NNW,330,12.0,19.0,45,0.00,,,-99.99,,2013-03-05 16:31:00,
2013-03-05 09:41:00,31.0,12.0,-100.00,NNW,335,10.0,16.0,44,0.00,,,-99.99,,2013-03-05 16:41:00,
2013-03-05 09:51:00,32.0,12.0,-100.00,NNW,335,10.0,17.0,43,0.00,,,-99.99,,2013-03-05 16:51:00,
2013-03-05 10:01:00,32.0,12.0,-100.00,NNW,340,9.0,17.0,42,0.00,,,-99.99,,2013-03-05 17:01:00,
2013-03-05 10:11:00,33.0,12.0,-100.00,North,0,9.0,16.0,42,0.00,,,-99.99,,2013-03-05 17:11:00,
2013-03-05 10:21:00,33.0,12.0,-100.00,North,0,9.0,14.0,41,0.00,,,-99.99,,2013-03-05 17:21:00,
2013-03-05 10:32:00,34.0,13.0,-100.00,North,355,10.0,16.0,41,0.00,,,-99.99,,2013-03-05 17:32:00,
2013-03-05 10:41:00,35.0,13.0,-100.00,North,0,8.0,14.0,40,0.00,,,-99.99,,2013-03-05 17:41:00,
2013-03-05 10:52:00,35.0,13.0,-100.00,North,0,9.0,14.0,40,0.00,,,-99.99,,2013-03-05 17:52:00,
2013-03-05 11:01:00,36.0,13.0,-100.00,North,0,7.0,12.0,39,0.00,,,-99.99,,2013-03-05 18:01:00,
2013-03-05 11:11:00,37.0,13.0,-100.00,North,0,7.0,14.0,38,0.00,,,-99.99,,2013-03-05 18:11:00,
2013-03-05 11:21:00,38.0,14.0,-100.00,North,0,8.0,11.0,37,0.00,,,-99.99,,2013-03-05 18:21:00,
2013-03-05 11:31:00,38.0,14.0,-100.00,North,355,7.0,12.0,36,0.00,,,-99.99,,2013-03-05 18:31:00,
2013-03-05 11:41:00,38.0,14.0,-100.00,North,355,7.0,12.0,36,0.00,,,-99.99,,2013-03-05 18:41:00,
2013-03-05 11:52:00,40.0,14.0,-100.00,North,0,6.0,-999.0,34,0.00,,,-99.99,,2013-03-05 18:52:00,
2013-03-05 12:01:00,41.0,15.0,-100.00,NNE,20,6.0,11.0,33,0.00,,,-99.99,,2013-03-05 19:01:00,
2013-03-05 12:11:00,41.0,14.0,-100.00,NNW,345,7.0,11.0,32,0.00,,,-99.99,,2013-03-05 19:11:00,
2013-03-05 12:21:00,42.0,14.0,-100.00,North,5,8.0,14.0,31,0.00,,,-99.99,,2013-03-05 19:21:00,
2013-03-05 12:31:00,42.0,14.0,-100.00,North,0,8.0,12.0,31,0.00,,,-99.99,,2013-03-05 19:31:00,
2013-03-05 12:41:00,43.0,14.0,-100.00,North,0,7.0,12.0,30,0.00,,,-99.99,,2013-03-05 19:41:00,
2013-03-05 12:51:00,44.0,14.0,-100.00,NNW,345,7.0,14.0,29,0.00,,,-99.99,,2013-03-05 19:51:00,
2013-03-05 13:01:00,45.0,14.0,-100.00,North,10,7.0,12.0,28,0.00,,,-99.99,,2013-03-05 20:01:00,
2013-03-05 13:11:00,45.0,14.0,-100.00,NNW,340,9.0,12.0,28,0.00,,,-99.99,,2013-03-05 20:11:00,
2013-03-05 13:21:00,46.0,14.0,-100.00,NNW,335,6.0,12.0,27,0.00,,,-99.99,,2013-03-05 20:21:00,
2013-03-05 13:32:00,46.0,14.0,-100.00,NNW,335,9.0,13.0,26,0.00,,,-99.99,,2013-03-05 20:32:00,
2013-03-05 13:41:00,47.0,14.0,-100.00,NW,325,10.0,12.0,26,0.00,,,-99.99,,2013-03-05 20:41:00,
2013-03-05 13:52:00,47.0,14.0,-100.00,NW,320,11.0,15.0,25,0.00,,,-99.99,,2013-03-05 20:52:00,
2013-03-05 14:01:00,48.0,14.0,-100.00,NNW,330,10.0,16.0,25,0.00,,,-99.99,,2013-03-05 21:01:00,
2013-03-05 14:11:00,48.0,14.0,-100.00,NW,320,9.0,13.0,24,0.00,,,-99.99,,2013-03-05 21:11:00,
2013-03-05 14:21:00,49.0,14.0,-100.00,North,0,7.0,12.0,24,0.00,,,-99.99,,2013-03-05 21:21:00,
2013-03-05 14:31:00,49.0,14.0,-100.00,NW,320,8.0,11.0,24,0.00,,,-99.99,,2013-03-05 21:31:00,
2013-03-05 14:41:00,49.0,14.0,-100.00,NNW,330,7.0,12.0,23,0.00,,,-99.99,,2013-03-05 21:41:00,
2013-03-05 14:52:00,49.0,13.0,-100.00,NW,315,7.0,11.0,22,0.00,,,-99.99,,2013-03-05 21:52:00,
2013-03-05 15:01:00,49.0,13.0,-100.00,NW,315,7.0,11.0,22,0.00,,,-99.99,,2013-03-05 22:01:00,
2013-03-05 15:11:00,50.0,13.0,-100.00,NW,310,6.0,9.0,22,0.00,,,-99.99,,2013-03-05 22:11:00,
2013-03-05 15:21:00,51.0,14.0,-100.00,NW,315,6.0,9.0,22,0.00,,,-99.99,,2013-03-05 22:21:00,
2013-03-05 15:31:00,53.0,15.0,-100.00,West,270,1.0,6.0,21,0.00,,,-99.99,,2013-03-05 22:31:00,
2013-03-05 15:41:00,52.0,14.0,-100.00,West,280,2.0,4.0,21,0.00,,,-99.99,,2013-03-05 22:41:00,
2013-03-05 15:51:00,52.0,15.0,-100.00,WNW,290,2.0,4.0,22,0.00,,,-99.99,,2013-03-05 22:51:00,
2013-03-05 16:01:00,53.0,15.0,-100.00,NNW,335,2.0,4.0,22,0.00,,,-99.99,,2013-03-05 23:01:00,
2013-03-05 16:11:00,53.0,15.0,-100.00,West,270,1.0,4.0,22,0.00,,,-99.99,,2013-03-05 23:11:00,
2013-03-05 16:21:00,52.0,13.0,-100.00,South,175,6.0,9.0,21,0.00,,,-99.99,,2013-03-05 23:21:00,
2013-03-05 16:32:00,52.0,13.0,-100.00,South,180,4.0,7.0,20,0.00,,,-99.99,,2013-03-05 23:32:00,
2013-03-05 16:41:00,52.0,12.0,-100.00,South,175,6.0,8.0,20,0.00,,,-99.99,,2013-03-05 23:41:00,
2013-03-05 16:52:00,52.0,13.0,-100.00,SSE,165,2.0,9.0,20,0.00,,,-99.99,,2013-03-05 23:52:00,
2013-03-05 17:01:00,50.0,10.0,-100.00,South,175,5.0,7.0,19,0.00,,,-99.99,,2013-03-06 00:01:00,
2013-03-05 17:11:00,49.0,11.0,-100.00,South,185,4.0,8.0,20,0.00,,,-99.99,,2013-03-06 00:11:00,
2013-03-05 17:21:00,49.0,11.0,-100.00,SSW,210,1.0,7.0,21,0.00,,,-99.99,,2013-03-06 00:21:00,
2013-03-05 17:32:00,49.0,11.0,-100.00,WSW,240,1.0,4.0,21,0.00,,,-99.99,,2013-03-06 00:32:00,
2013-03-05 17:41:00,48.0,11.0,-100.00,South,185,1.0,4.0,21,0.00,,,-99.99,,2013-03-06 00:41:00,
2013-03-05 17:51:00,48.0,11.0,-100.00,North,355,1.0,3.0,22,0.00,,,-99.99,,2013-03-06 00:51:00,
2013-03-05 18:01:00,48.0,12.0,-100.00,NW,310,1.0,4.0,22,0.00,,,-99.99,,2013-03-06 01:01:00,
2013-03-05 18:11:00,47.0,12.0,-100.00,NW,325,2.0,5.0,24,0.00,,,-99.99,,2013-03-06 01:11:00,
2013-03-05 18:21:00,46.0,12.0,-100.00,NW,315,3.0,4.0,24,0.00,,,-99.99,,2013-03-06 01:21:00,
2013-03-05 18:31:00,45.0,12.0,-100.00,NW,305,3.0,5.0,26,0.00,,,-99.99,,2013-03-06 01:31:00,
2013-03-05 18:41:00,43.0,12.0,-100.00,NW,315,3.0,4.0,28,0.00,,,-99.99,,2013-03-06 01:41:00,
2013-03-05 18:51:00,42.0,14.0,-100.00,NW,320,2.0,4.0,31,0.00,,,-99.99,,2013-03-06 01:51:00,
2013-03-05 19:01:00,41.0,14.0,-100.00,NW,315,4.0,4.0,32,0.00,,,-99.99,,2013-03-06 02:01:00,
2013-03-05 19:11:00,41.0,15.0,-100.00,NW,320,4.0,6.0,33,0.00,,,-99.99,,2013-03-06 02:11:00,
2013-03-05 19:21:00,39.0,13.0,-100.00,North,355,2.0,4.0,33,0.00,,,-99.99,,2013-03-06 02:21:00,
2013-03-05 19:31:00,39.0,13.0,-100.00,North,0,2.0,4.0,34,0.00,,,-99.99,,2013-03-06 02:31:00,
2013-03-05 19:41:00,39.0,14.0,-100.00,North,355,3.0,6.0,35,0.00,,,-99.99,,2013-03-06 02:41:00,
2013-03-05 19:52:00,40.0,14.0,-100.00,NNW,330,5.0,6.0,35,0.00,,,-99.99,,2013-03-06 02:52:00,
2013-03-05 20:01:00,41.0,15.0,-100.00,NNW,340,9.0,12.0,33,0.00,,,-99.99,,2013-03-06 03:01:00,
2013-03-05 20:11:00,41.0,15.0,-100.00,NNW,335,9.0,11.0,33,0.00,,,-99.99,,2013-03-06 03:11:00,
2013-03-05 20:21:00,40.0,14.0,-100.00,NNW,330,9.0,10.0,34,0.00,,,-99.99,,2013-03-06 03:21:00,
2013-03-05 20:31:00,40.0,14.0,-100.00,NNW,330,9.0,11.0,35,0.00,,,-99.99,,2013-03-06 03:31:00,
2013-03-05 20:41:00,39.0,14.0,-100.00,NNW,340,7.0,11.0,36,0.00,,,-99.99,,2013-03-06 03:41:00,
2013-03-05 20:52:00,38.0,14.0,-100.00,NNW,335,8.0,9.0,37,0.00,,,-99.99,,2013-03-06 03:52:00,
2013-03-05 21:01:00,37.0,14.0,-100.00,NNW,340,6.0,9.0,38,0.00,,,-99.99,,2013-03-06 04:01:00,
2013-03-05 21:11:00,37.0,15.0,-100.00,NNW,340,5.0,8.0,40,0.00,,,-99.99,,2013-03-06 04:11:00,
2013-03-05 21:21:00,36.0,15.0,-100.00,NNW,345,6.0,7.0,40,0.00,,,-99.99,,2013-03-06 04:21:00,
2013-03-05 21:31:00,36.0,15.0,-100.00,NNW,345,7.0,8.0,41,0.00,,,-99.99,,2013-03-06 04:31:00,
2013-03-05 21:41:00,36.0,16.0,-100.00,NNW,335,5.0,7.0,42,0.00,,,-99.99,,2013-03-06 04:41:00,
2013-03-05 21:51:00,36.0,15.0,-100.00,NNW,340,6.0,7.0,42,0.00,,,-99.99,,2013-03-06 04:51:00,
2013-03-05 22:01:00,36.0,16.0,-100.00,NNW,335,10.0,12.0,43,0.00,,,-99.99,,2013-03-06 05:01:00,
2013-03-05 22:11:00,36.0,16.0,-100.00,NNW,340,7.0,12.0,43,0.00,,,-99.99,,2013-03-06 05:11:00,
2013-03-05 22:22:00,35.0,16.0,-100.00,NNW,335,7.0,8.0,44,0.00,,,-99.99,,2013-03-06 05:22:00,
2013-03-05 22:32:00,35.0,17.0,-100.00,NNW,330,8.0,11.0,45,0.00,,,-99.99,,2013-03-06 05:32:00,
2013-03-05 22:42:00,35.0,17.0,-100.00,NNW,335,9.0,10.0,46,0.00,,,-99.99,,2013-03-06 05:42:00,
2013-03-05 22:52:00,35.0,17.0,-100.00,NNW,330,8.0,11.0,45,0.00,,,-99.99,,2013-03-06 05:52:00,
2013-03-05 23:01:00,35.0,17.0,-100.00,NNW,330,7.0,9.0,45,0.00,,,-99.99,,2013-03-06 06:01:00,
2013-03-05 23:11:00,35.0,16.0,-100.00,NNW,340,7.0,9.0,46,0.00,,,-99.99,,2013-03-06 06:11:00,
2013-03-05 23:21:00,35.0,16.0,-100.00,NNW,330,6.0,7.0,46,0.00,,,-99.99,,2013-03-06 06:21:00,
2013-03-05 23:31:00,34.0,16.0,-100.00,North,355,4.0,8.0,47,0.00,,,-99.99,,2013-03-06 06:31:00,
2013-03-05 23:41:00,34.0,16.0,-100.00,NNW,345,6.0,8.0,47,0.00,,,-99.99,,2013-03-06 06:41:00,
2013-03-05 23:52:00,34.0,17.0,-100.00,NW,325,7.0,9.0,47,0.00,,,-99.99,,2013-03-06 06:52:00,